Weather Roundup
Issued by NWS Springfield, MO

Home | Current Version | Previous Version | Text Only | Print | Product List | Glossary On
Versions: 1 2 3 4 5 6 7 8 9 10 11 12 13 14 15 16 17 18 19 20 21 22 23 24 25 26 27 28 29 30 31 32 33 34 35 36 37 38 39 40 41 42 43 44 45 46 47 48 49 50
000
NZUS99 KSGF 200207
HRRSGF

HOURLY WEATHER
NATIONAL WEATHER SERVICE SPRINGFIELD MO
900 PM CDT SAT MAY 19 2018

......SGF CWA......

CITY           SKY/WX    TMP DP  RH WIND       PRES   REMARKS
SPRINGFIELD    CLOUDY    67  59  75 CALM      29.96F
JOPLIN         CLOUDY    70  61  73 SE6       29.93R
WEST PLAINS    CLEAR     71  65  81 SE10      29.99F
ROLLA          LGT RAIN  63  58  83 NE9       30.01F
OSAGE BEACH    CLOUDY    64  61  90 VRB5      29.95F
BRANSON        PTCLDY    75  59  57 N10G23    30.00R

......SURROUNDING SGF CWA......

CITY           SKY/WX    TMP DP  RH WIND       PRES   REMARKS
CHANUTE        PTCLDY    70  66  87 SW5       29.92R
PARSONS        CLOUDY    70  65  84 CALM      29.93R
COFFEYVILLE    CLOUDY    69  67  93 SW6       29.91R
EMPORIA        CLOUDY    70  67  90 CALM      29.91R
GROVE OK       CLEAR     70  63  78 E5        29.95R
ROGERS AR      PTCLDY    76  66  71 SE6       29.98R
SILOAM SPRINGS MOCLDY    76  67  73 SE5       29.97R
HARRISON AR    CLEAR     78  66  66 S5        29.98R
NEAR YELLVILLE CLEAR     78  69  73 E8G16     29.97R

......KANSAS AND MISSOURI......

CITY           SKY/WX    TMP DP  RH WIND       PRES   REMARKS
KANSAS CTY INT PTCLDY    71  66  84 SE8       29.90R
DOWNTOWN KC    CLOUDY    77  64  64 SE5       29.89R
COLUMBIA       TSTM      65  61  87 SW15      30.06R FOG
SEDALIA        CLOUDY    66  65  96 NE5       29.92R
ST JOSEPH      CLOUDY    75  59  57 NE12      29.91R
ST LOUIS       CLOUDY    70  63  78 CALM      29.96R THUNDER
SPIRIT OF STL  CLOUDY    68  64  87 W12G17    30.00R
KIRKSVILLE     CLOUDY    73  63  70 S9        29.94R
WICHITA        MOCLDY    75  69  81 CALM      29.91R
TOPEKA         CLEAR     73  68  84 SE5       29.89R
OLATHE         MOCLDY    68  65  90 SE3       29.92R

......TENNESSEE......

CITY           SKY/WX    TMP DP  RH WIND       PRES   REMARKS
MEMPHIS        MOCLDY    74  64  71 SE8       29.98S
NASHVILLE      MOCLDY    80  60  50 NW16G23   30.07R

......ARKANSAS.......

CITY           SKY/WX    TMP DP  RH WIND       PRES   REMARKS
FAYETTEVILLE   CLOUDY    74  66  76 CALM      29.97R
FT SMITH       CLEAR     82  70  66 CALM      29.91R
LITTLE ROCK    CLOUDY    80  70  71 S6        29.95R

......OKLAHOMA.......

CITY           SKY/WX    TMP DP  RH WIND       PRES   REMARKS
TULSA          CLOUDY    76  63  64 CALM      29.89R
PONCA CITY     MOCLDY    71  64  78 W3        29.91R
MCALESTER      CLOUDY    77  70  79 E3        29.92R
OKLAHOMA CITY  CLOUDY    77  67  71 S6        29.91R

......IOWA............

CITY           SKY/WX    TMP DP  RH WIND       PRES   REMARKS
DES MOINES     CLOUDY    67  59  75 N7        29.94R
QUAD CITIES    CLOUDY    76  65  68 CALM      29.90R

......ILLINOIS........

CITY           SKY/WX    TMP DP  RH WIND       PRES   REMARKS
QUINCY         CLOUDY    72  64  76 S7        29.93R
CHICAGO        MOCLDY    61  54  77 E7        29.94R





USA.gov is the U.S. government's official web portal to all federal, state and local government web resources and services.